Greenville, SC

12:38 AM EDT on October 18, 2017 (GMT -0400)
Donaldson Center

Weather History for KGYH - January, 2013

Change the Weather History Date:

Tuesday, January 8, 2013

  Actual Average (KGMU) Record (KGMU)
Temperature  
Mean Temperature 40 °F -  
Max Temperature 51 °F 51 °F 70 °F (2005)
Min Temperature 30 °F 34 °F 10 °F (2015)
Degree Days  
Heating Degree Days 24    
Moisture  
Dew Point 34 °F    
Average Humidity 69    
Maximum Humidity 93    
Minimum Humidity 54    
Precipitation  
Precipitation 0.00 in - - ()
Sea Level Pressure  
Sea Level Pressure 30.38 in    
Wind  
Wind Speed 4 mph (NE)    
Max Wind Speed 8 mph    
Max Gust Speed -    
Visibility 10 miles    
Events      
Averages and records for this station are not official NWS values.
T = Trace of Precipitation, MM = Missing Value Source: NWS Daily Summary

Daily Weather History Graph

Daily Weather History Graph

Search for Another Location

Airport or City:

Trip Planner

Search our weather history database for the weather conditions in past years. The results will help you decide how hot, cold, wet, or windy it might be!

Date:

Astronomy

Jan. 08, 2013 Rise Set
Actual Time 7:37 AM EST 5:35 PM EST
Civil Twilight 7:09 AM EST 6:03 PM EST
Nautical Twilight 6:38 AM EST 6:34 PM EST
Astronomical Twilight 6:07 AM EST 7:05 PM EST
Moon 4:09 AM EST (1/8) 2:36 PM EST (1/8)
Length of Visible Light 10h 53m
Length of Day
9h 58m
Waning Crescent, 14% of the Moon is Illuminated
Jan 8
Waning Crescent
Jan 11
New
Jan 18
First Quarter
Jan 26
Full
Feb 3
Last Quarter

Hourly Weather History & Observations

Time (EST) Temp. Windchill Dew Point Humidity Pressure Visibility Wind Dir Wind Speed Gust Speed Precip Events Conditions
12:35 AM 39.2 °F 34.2 °F 30.2 °F 70% 30.38 in 10.0 mi NE 6.9 mph - N/A   Clear
1:15 AM 39.2 °F 35.9 °F 30.2 °F 70% 30.37 in 10.0 mi NE 4.6 mph - N/A   Clear
1:35 AM 37.4 °F 32.8 °F 30.2 °F 75% 30.37 in 10.0 mi NE 5.8 mph - N/A   Clear
1:55 AM 39.2 °F 35.9 °F 30.2 °F 70% 30.36 in 10.0 mi NNE 4.6 mph - N/A   Clear
2:15 AM 39.2 °F 35.9 °F 30.2 °F 70% 30.36 in 10.0 mi NNE 4.6 mph - N/A   Clear
2:35 AM 37.4 °F - 30.2 °F 75% 30.36 in 10.0 mi Calm Calm - N/A   Clear
2:55 AM 35.6 °F - 30.2 °F 81% 30.37 in 10.0 mi Calm Calm - N/A   Clear
3:15 AM 33.8 °F - 30.2 °F 87% 30.36 in 10.0 mi Calm Calm - N/A   Clear
3:35 AM 30.2 °F - 28.4 °F 93% 30.37 in 10.0 mi Calm Calm - N/A   Clear
3:55 AM 32.0 °F - 30.2 °F 93% 30.36 in 10.0 mi Calm Calm - N/A   Clear
4:15 AM 35.6 °F - 30.2 °F 81% 30.36 in 10.0 mi Calm Calm - N/A   Clear
4:35 AM 33.8 °F 30.8 °F 30.2 °F 87% 30.36 in 10.0 mi NNE 3.5 mph - N/A   Scattered Clouds
4:55 AM 33.8 °F - 30.2 °F 87% 30.36 in 10.0 mi Calm Calm - N/A   Clear
5:15 AM 33.8 °F 30.8 °F 30.2 °F 87% 30.36 in 10.0 mi NNE 3.5 mph - N/A   Clear
5:35 AM 35.6 °F 31.7 °F 30.2 °F 81% 30.37 in 10.0 mi NNE 4.6 mph - N/A   Clear
7:47 AM 35.6 °F 30.7 °F 30.2 °F 81% 30.39 in 10.0 mi NE 5.8 mph - N/A   Mostly Cloudy
8:47 AM 39.2 °F 37.0 °F 30.2 °F 70% 30.42 in 10.0 mi NNE 3.5 mph - N/A   Mostly Cloudy
9:47 AM 42.8 °F 38.6 °F 33.8 °F 70% 30.43 in 10.0 mi ENE 6.9 mph - N/A   Mostly Cloudy
10:47 AM 46.4 °F 42.4 °F 33.8 °F 62% 30.44 in 10.0 mi ENE 8.1 mph - N/A   Overcast
11:48 AM 46.4 °F 45.2 °F 33.8 °F 62% 30.43 in 10.0 mi ENE 3.5 mph - N/A   Overcast
12:47 PM 48.2 °F - 33.8 °F 58% 30.40 in 10.0 mi ENE 3.5 mph - N/A   Overcast
1:47 PM 50.0 °F - 33.8 °F 54% 30.37 in 10.0 mi Calm Calm - N/A   Overcast
2:47 PM 51.8 °F - 35.6 °F 54% 30.35 in 10.0 mi ENE 3.5 mph - N/A   Overcast
3:47 PM 51.8 °F - 37.4 °F 58% 30.35 in 10.0 mi NE 3.5 mph - N/A   Overcast
4:47 PM 51.8 °F - 37.4 °F 58% 30.35 in 10.0 mi Calm Calm - N/A   Overcast
5:47 PM 51.8 °F - 39.2 °F 62% 30.36 in 10.0 mi Calm Calm - N/A   Overcast
6:47 PM 48.2 °F - 37.4 °F 66% 30.36 in 10.0 mi East 5.8 mph - N/A   Mostly Cloudy
7:47 PM 48.2 °F - 37.4 °F 66% 30.37 in 10.0 mi NE 5.8 mph - N/A   Mostly Cloudy
8:15 PM 50.0 °F - 37.4 °F 62% 30.39 in 10.0 mi Calm Calm - N/A   Overcast
8:35 PM 50.0 °F - 37.4 °F 62% 30.39 in 10.0 mi NE 3.5 mph - N/A   Overcast
8:47 PM 50.0 °F - 37.4 °F 62% 30.39 in 10.0 mi Calm Calm - N/A   Overcast
8:55 PM 50.0 °F - 37.4 °F 62% 30.38 in 10.0 mi NE 3.5 mph - N/A   Overcast
9:15 PM 50.0 °F - 37.4 °F 62% 30.38 in 10.0 mi ENE 5.8 mph - N/A   Overcast
9:35 PM 50.0 °F - 37.4 °F 62% 30.39 in 10.0 mi ENE 3.5 mph - N/A   Overcast
9:55 PM 50.0 °F - 37.4 °F 62% 30.39 in 10.0 mi East 5.8 mph - N/A   Overcast
10:15 PM 50.0 °F - 37.4 °F 62% 30.39 in 10.0 mi ENE 4.6 mph - N/A   Overcast
10:35 PM 50.0 °F - 37.4 °F 62% 30.39 in 10.0 mi Calm Calm - N/A   Overcast
10:55 PM 50.0 °F - 37.4 °F 62% 30.39 in 10.0 mi NE 4.6 mph - N/A   Overcast
11:15 PM 48.2 °F - 37.4 °F 66% 30.39 in 10.0 mi NE 3.5 mph - N/A   Overcast
11:35 PM 50.0 °F - 37.4 °F 62% 30.38 in 10.0 mi NNE 3.5 mph - N/A   Overcast
11:55 PM 50.0 °F - 37.4 °F 62% 30.37 in 10.0 mi NNE 3.5 mph - N/A   Overcast